Regional Weather Roundup
Issued by NWS

Home | Current Version | Previous Version | Text Only | Print | Product List | Glossary On
Versions: 1 2 3 4 5 6 7 8 9 10 11 12 13 14 15 16 17 18 19 20 21 22 23 24 25 26 27 28 29 30 31 32 33 34 35 36 37 38 39 40 41 42 43 44 45 46 47 48 49 50
000
ASUS45 KBOI 261710
RWRID

IDAHO REGIONAL WEATHER ROUNDUP
NATIONAL WEATHER SERVICE BOISE ID
1100 AM MDT FRI MAY 26 2017

NOTE: "FAIR" INDICATES FEW OR NO CLOUDS BELOW 12000 FEET
WITH NO SIGNIFICANT WEATHER AND/OR OBSTRUCTIONS TO VISIBILITY

IDZ012-014-261800-
SOUTHWEST IDAHO


CITY           SKY/WX    TMP DP  RH WIND       PRES   REMARKS
BOISE          PTSUNNY   58  43  57 NW7       29.89R
CALDWELL       MOSUNNY   60  44  55 W9G17     29.90S
MOUNTAIN HOME  MOSUNNY   58  43  57 NW10      29.90R
$$

IDZ016-017-261800-
SOUTHCENTRAL IDAHO


CITY           SKY/WX    TMP DP  RH WIND       PRES   REMARKS
BURLEY         CLOUDY    48  41  76 W7        29.89R
JEROME         CLOUDY    49  45  86 W12       29.90R
TWIN FALLS     CLOUDY    50  45  83 W16       29.91R
$$

IDZ019>023-261800-
SOUTHEAST IDAHO


CITY           SKY/WX    TMP DP  RH WIND       PRES   REMARKS
IDAHO FALLS    LGT RAIN  44  43  96 N6        29.87R
POCATELLO      CLOUDY    45  42  89 W7        29.89R
REXBURG        LGT RAIN  44  40  85 NE8       29.86R
$$

IDZ006-010-011-018-031-032-261800-
CENTRAL IDAHO MOUNTAINS


CITY           SKY/WX    TMP DP  RH WIND       PRES   REMARKS
MCCALL         MOSUNNY   52  33  48 NE10      29.90R
HAILEY         LGT RAIN  39  37  93 NW7       29.93R WCI  34
STANLEY          N/A     44  39  82 CALM      29.92R
SALMON         CLOUDY    54  37  54 CALM      29.89S
CHALLIS        PTSUNNY   53  35  50 N9        29.90R
$$

IDZ002-004-006-007-026-261800-
NORTHERN IDAHO


CITY           SKY/WX    TMP DP  RH WIND       PRES   REMARKS
LEWISTON       SUNNY     62  46  55 VRB3      29.94R
LOWELL           N/A     60  43  53 CALM      29.91F
COEUR D`ALENE  SUNNY     63  44  50 N7        29.94F
MULLAN PASS    MOSUNNY   46  33  60 NW3       29.98S
$$



USA.gov is the U.S. government's official web portal to all federal, state and local government web resources and services.